C/2018 B1 ( Lemmon )

Japanese version
Home page
Updated on September 23, 2018

---------------------------------------------------------------------

* Profile

Discovery Date January 25, 2018
Magnitude 19.4 mag
Discoverer A. D. Grauer (Mount Lemmon Survey)

* Pictures

* Orbital Elements

Epoch 2018 Mar. 23.0 TT = JDT 2458200.5
T 2018 Mar. 30.58245 TT                                 MPCW
q   5.1168821            (2000.0)            P               Q
z  -0.0005817      Peri.   68.35564     +0.39407973     +0.89228566
 +/-0.0000049      Node   133.15839     +0.69129307     -0.44571913
e   1.0029763      Incl.  162.42298     +0.60565259     -0.07183844
From 107 observations 2017 Jan. 16-2018 Sept. 18, mean residual 0".5.

* Magnitudes Graph

        m1 = 1.0 + 5 log d + 20.0 log r(t - 100)

---------------------------------------------------------------------

The orbital elements are published on M.P.E.C. 2018-S50.
The magnitudes graphs are made with Comet for Windows.

---------------------------------------------------------------------

Copyright(C) Seiichi Yoshida (comet@aerith.net). All rights reserved.